Home   Weather   Winterthur   Past weeks

Flag for Switzerland Past Weather in Winterthur, Switzerland — Yesterday and Last 2 Weeks

Now
34 °F

Light rain. Mostly cloudy.


Feels Like: 34 °F
Forecast: 22 / 51 °F
Wind: 2 mph from North

Location: Zurich-Kloten

Current Time: Apr 28, 2017 at 3:08:44 am

Latest Report: Apr 28, 2017 at 1:50 am


Visibility: 3 mi

Pressure: 29.89 "Hg

Humidity: 100%

Dew Point: 34 °F

Location of WinterthurLocation

Past Weather in Winterthur — Graph

°F

Winterthur Temperature Yesterday

Maximum temperature yesterday: 41 °F (at 1:50 pm)
Minimum temperature yesterday: 36 °F (at 10:20 pm)
Average temperature yesterday: 38 °F

High & Low Weather Summary for the Past Weeks

 TemperatureHumidityPressure
High68 °F (Apr 24, 5:20 pm)100% (Apr 18, 1:50 am)30.51 "Hg (Apr 18, 1:50 am)
Low25 °F (Apr 21, 4:50 am)24% (Apr 21, 4:50 pm)29.71 "Hg (Apr 25, 10:50 pm)
Average45 °F72%30.11 "Hg
* Reported Apr 13 1:20 am — Apr 28 1:50 am, Winterthur, Weather by CustomWeather, © 2017

Note: Actual official high and low records may vary slightly from our data, if they occured in-between our weather recording intervals... More about our weather records

Advertising

Winterthur Weather History for the Previous 24 Hours

Scroll right to see more
 ConditionsComfort  
Time TempWeatherWind HumidityBarometerVisibility
1:50 am
Fri, Apr 28
34 °FLight rain. Mostly cloudy.2 mph100%29.89 "Hg3 mi
1:20 am34 °FLight rain. Mostly cloudy.2 mph100%29.89 "Hg3 mi
12:50 am36 °FRain. Mostly cloudy.No wind93%29.92 "Hg4 mi
12:20 am36 °FLight rain. Mostly cloudy.2 mph93%29.92 "Hg4 mi
11:50 pm
Thu, Apr 27
36 °FLight rain. Low clouds.1 mph93%29.92 "Hg4 mi
11:20 pm36 °FLight rain. Mostly cloudy.2 mph93%29.92 "Hg6 mi
10:50 pm36 °FLight rain. Partly cloudy.3 mph93%29.92 "Hg5 mi
10:20 pm36 °FLight rain. Partly cloudy.2 mph93%29.92 "HgN/A
9:50 pm37 °FRain. Partly cloudy.5 mph87%29.95 "Hg6 mi
9:20 pm37 °FLight rain. Partly cloudy.5 mph93%29.92 "HgN/A
8:50 pm37 °FLight rain. Partly cloudy.3 mph93%29.92 "HgN/A
8:20 pm37 °FLight rain. Broken clouds.3 mph93%29.92 "Hg6 mi
7:50 pm37 °FLight rain. Broken clouds.6 mph93%29.92 "Hg4 mi
7:20 pm39 °FLight rain. Broken clouds.3 mph87%29.92 "Hg5 mi
6:50 pm39 °FRain. Broken clouds.5 mph87%29.92 "Hg5 mi
6:20 pm39 °FLight rain. Broken clouds.6 mph87%29.92 "Hg4 mi
5:50 pm39 °FRain. Broken clouds.3 mph93%29.95 "Hg4 mi
5:20 pm39 °FRain. Broken clouds.6 mph93%29.95 "Hg4 mi
4:50 pm39 °FRain. Broken clouds.8 mph87%29.95 "Hg4 mi
4:20 pm41 °FLight rain. Broken clouds.7 mph87%29.95 "Hg4 mi
3:50 pm41 °FLight rain. Broken clouds.8 mph93%29.95 "Hg5 mi
3:20 pm41 °FLight rain. Broken clouds.8 mph87%29.95 "HgN/A
2:50 pm41 °FLight rain. Broken clouds.7 mph87%29.95 "HgN/A
2:20 pm41 °FLight rain. Partly sunny.7 mph87%29.95 "HgN/A
1:50 pm41 °FLight rain. Partly sunny.7 mph87%29.95 "HgN/A
1:20 pm39 °FDrizzle. Partly sunny.3 mph87%29.95 "HgN/A
12:50 pm39 °FDrizzle. Partly sunny.5 mph87%29.95 "HgN/A
12:20 pm39 °FLight rain. Partly sunny.3 mph87%29.95 "Hg5 mi
11:50 am37 °FLight rain. Partly sunny.6 mph93%29.95 "Hg5 mi
11:20 am37 °FLight rain. Partly sunny.5 mph93%29.95 "HgN/A
10:50 am37 °FLight rain. Partly sunny.3 mph93%29.95 "HgN/A
10:20 am37 °FLight rain. Partly sunny.7 mph93%29.95 "HgN/A
9:50 am37 °FLight rain. Partly sunny.6 mph87%29.95 "HgN/A
9:20 am37 °FLight rain. Broken clouds.6 mph87%29.95 "HgN/A
8:50 am37 °FLight rain. Partly sunny.6 mph87%29.95 "HgN/A
8:20 am37 °FLight rain. Broken clouds.7 mph93%29.95 "HgN/A
7:50 am37 °FLight rain. Broken clouds.5 mph93%29.95 "HgN/A
7:20 am37 °FLight rain. Partly sunny.5 mph87%29.92 "Hg6 mi
6:50 am37 °FLight rain. Partly sunny.7 mph93%29.92 "HgN/A
6:20 am37 °FDrizzle. Broken clouds.6 mph93%29.92 "HgN/A
5:50 am37 °FLight rain. Passing clouds.3 mph93%29.92 "HgN/A
5:20 am39 °FRain. Passing clouds.No wind93%29.89 "Hg4 mi
4:50 am39 °FRain. Passing clouds.1 mph93%29.89 "Hg5 mi
4:20 am39 °FRain. Mostly cloudy.No wind87%29.89 "Hg5 mi
3:50 am37 °FRain. Partly cloudy.2 mph93%29.89 "HgN/A
3:20 am39 °FRain. Passing clouds.3 mph87%29.89 "HgN/A
Weather by CustomWeather, © 2017

See weather overviewHow to use our weather pages